Hourly Data Report for October 14, 2015

All times are specified in Local Standard Time (LST). Add 1 hour to adjust for Daylight Saving Time where and when it is observed.

KUGAARUK CLIMATE
NUNAVUT

68°32'15.060" N
89°47'47.020" W
15.80 m
2303094
71407
NBB

Download Data

Hourly Data (October 2015)
Hourly Data Report for October 14, 2015
Temp Definition
°C
Dew Point Temp Definition
°C
Rel Hum Definition
%
Wind Dir Definition
10's deg

Wind Spd Definition
km/h
Visibility Definition
km
Stn Press Definition
kPa
Hmdx Definition


Wind Chill Definition


Weather Definition


TIME
00:00 -5.4 -7.4 86 31 28   99.87   -13 LegendNANA
01:00 -5.5 -7.0 89 31 27   99.88   -13 LegendNANA
02:00 -5.6 -7.0 90 31 24   99.90   -13 LegendNANA
03:00 -5.0 -6.2 91 31 25   99.92   -12 LegendNANA
04:00 -4.4 -5.9 89 32 28   99.96   -12 LegendNANA
05:00 -5.0 -6.3 90 32 35   99.99   -14 LegendNANA
06:00 -4.8 -6.1 91 33 32   100.02   -13 LegendNANA
07:00 -4.1 -5.5 90 34 31   100.09   -12 LegendNANA
08:00 -4.3 -5.7 90 34 26   100.15   -12 LegendNANA
09:00 -4.6 -6.0 90 34 31   100.21   -13 LegendNANA
10:00 -4.8 -6.5 88 33 24   100.27   -12 LegendNANA
11:00 -5.2 -7.2 86 33 23   100.31   -12 LegendNANA
12:00 -6.2 -8.3 85 33 26   100.35   -14 LegendNANA
13:00 -6.9 -8.9 85 31 22   100.40   -14 LegendNANA
14:00 -7.6 -10.1 82 32 22   100.46   -15 LegendNANA
15:00 -8.1 -11.2 78 31 20   100.46   -15 LegendNANA
16:00 -8.3 -11.2 79 30 21   100.48   -16 LegendNANA
17:00 -9.1 -11.9 80 30 22   100.50   -17 LegendNANA
18:00 -10.0 -12.6 81 29 23   100.52   -18 LegendNANA
19:00 -10.0 -12.9 80 31 21   100.51   -18 LegendNANA
20:00 -10.8 -13.5 80 32 27   100.52   -20 LegendNANA
21:00 -11.0 -13.8 80 31 26   100.49   -20 LegendNANA
22:00 -11.3 -14.2 78 30 26   100.49   -21 LegendNANA
23:00 -10.8 -13.9 78 31 25   100.47   -20 LegendNANA

Notes on Data Quality.

Legend

  • E = Estimated
  • M = Missing
  • NA = Not Available
  • ‡ = Partner data that is not subject to review by the National Climate Archives
Date modified: